Location: Praha
(50.0830°N, 14.4670°E)
Time: 19:44:34
(UTC+02:00)

ISS - Pass Details

Date: 06 July 2019
Orbit: 409 x 418 km, 51.6° (Epoch: 20 July)

Event Time Altitude Azimuth Distance (km) Brightness Sun altitude
Exits shadow 03:19:58 19° 204° (SSW) 1,045 -2.4 -11.4°
Maximum altitude 03:21:49 35° 149° (SSE) 684 -2.9 -11.3°
Drops below altitude 10° 03:24:52 10° 82° (E) 1,478 -0.4 -11.0°
Sets 03:27:03 0° 73° (ENE) 2,342 0.9 -10.8°
